Tracking 25612 objects as of 19-May-2022
HD Live streaming from Space Station
objects crossing your sky now

LUCH DEB

Track LUCH DEB now!


NORAD ID: 44582
Int'l Code: 1994-082G
Perigee: 35,568.0 km
Apogee: 35,788.0 km
Inclination: 14.7 °
Period: 1,430.2 minutes
Semi major axis: 42048 km
RCS: Unknown
Launch date: December 16, 1994
Source: Commonwealth of Independent States (former USSR) (CIS)
Launch site: TYURATAM MISSILE AND SPACE COMPLEX (TTMTR)

Note: This is SATELLITE DEBRIS
aabbcc
Your satellite tracking list
Your tracking list is empty




NASA's NSSDC Master Catalog

Two Line Element Set (TLE):
1 44582U 94082G   22137.55192794 -.00000220  00000-0  00000-0 0  9998
2 44582  14.7241   5.8646 0026164  64.6190 143.9979  1.00686155 31220
Source of the keplerian elements: AFSPC